This is the latest recevied weather packets stored in our database for station/object OE5HCE. If no packets are shown the sender has not sent any weather packets the latest 10 day(s).
| Time | Temp. | Humidity | Pressure | Rain* | Wind** | Luminosity | Snow |
|---|---|---|---|---|---|---|---|
| 1787757331 | 27.22° C | 57% | 1017.6 hPa | 0 mm | - | 244 W/m² | - |
| 1787756438 | 28.33° C | 54% | 1017.7 hPa | 0 mm | - | 399 W/m² | - |
| 1787755522 | 27.22° C | 57% | 1017.8 hPa | 0 mm | - | 287 W/m² | - |
| 1787754617 | 27.22° C | 54% | 1017.7 hPa | 0 mm | - | 431 W/m² | - |
| 1787753712 | 27.22° C | 54% | 1018 hPa | 0 mm | - | 283 W/m² | - |
| 1787752821 | 27.22° C | 56% | 1018.1 hPa | 0 mm | - | 570 W/m² | - |
| 1787751906 | 25.56° C | 60% | 1018.1 hPa | 0 mm | - | 206 W/m² | - |
| 1787751003 | 25.56° C | 60% | 1018.1 hPa | 0 mm | - | 202 W/m² | - |
| 1787750161 | 25.56° C | 62% | 1018.1 hPa | 0 mm | - | 236 W/m² | - |
| 1787749258 | 26.67° C | 59% | 1018.2 hPa | 0 mm | - | 673 W/m² | - |
| 1787748353 | 26.67° C | 56% | 1018.4 hPa | 0 mm | - | 652 W/m² | - |
| 1787747446 | 25.56° C | 60% | 1018.4 hPa | 0 mm | - | 464 W/m² | - |
| 1787746543 | 25.56° C | 59% | 1018.5 hPa | 0 mm | - | 387 W/m² | - |
| 1787745638 | 25° C | 63% | 1018.7 hPa | 0 mm | - | 427 W/m² | - |
| 1787744731 | 25° C | 63% | 1018.7 hPa | 0 mm | - | 353 W/m² | - |
| 1787743828 | 25° C | 61% | 1018.8 hPa | 0 mm | - | 555 W/m² | - |
| 1787742922 | 25° C | 63% | 1019 hPa | 0 mm | - | 596 W/m² | - |
| 1787742018 | 24.44° C | 69% | 1019.2 hPa | 0 mm | - | 854 W/m² | - |
| 1787741112 | 22.78° C | 70% | 1019.2 hPa | 0 mm | - | 763 W/m² | - |
| 1787740216 | 22.22° C | 73% | 1019.3 hPa | 0 mm | - | 721 W/m² | - |
| 1787739308 | 21.67° C | 74% | 1019.5 hPa | 0 mm | - | 506 W/m² | - |
| 1787738483 | 21.11° C | 74% | 1019.6 hPa | 0 mm | - | 807 W/m² | - |
| 1787737566 | 20.56° C | 72% | 1019.7 hPa | 0 mm | - | 320 W/m² | - |
| 1787736654 | 20° C | 68% | 1019.7 hPa | 0 mm | - | 292 W/m² | - |
| 1787735748 | 18.89° C | 45% | 1019.8 hPa | 0 mm | - | 666 W/m² | - |
* Rain latest hour (hover to see other rain measurements)
** Current wind speed in m/s (hover to see current wind gust speed)